Weather in Zelva

Belarus     53°08′58″N   24°49′01″E
temp.,
°C
wind,
m/s
gust,
m/s
humid.,
%
clouds,
%
prec.,
mm/h
press.,
hPa
HPBL,
m
16 may, sun
sun1600:00+10sw339092 0.0 100938
03:00+9sw229226 0.0 101013
06:00+8s2394100 0.0 101039
09:00+14s357794 0.0 1010372
12:00+17sse566383 0.0 10101198
15:00+19se686094 0.2 10081704
18:00+18sse5972100 0.5 10071035
21:00+15se4985100 2.5 1006175
17 may, mon
mon1700:00+13se51195100 3.2 1005272
03:00+13sse4797100 3.7 1006281
06:00+12s3798100 0.9 1006324
09:00+12wsw3695100 2.2 1007354
12:00+16nw227426 0.0 1007864
15:00+18n22595 0.0 10061330
18:00+19nne2260100 0.0 10051156
21:00+15ene347688 0.1 100568
18 may, tue
tue1800:00+12ene2288100 0.0 100325
03:00+11ne339396 0.0 100244
06:00+10nne119417 0.0 100110
09:00+15wsw2281100 0.0 1000424
12:00+16wsw5478100 0.4 999869
15:00+16wsw657598 0.6 1000955
18:00+13sw5583100 0.0 1000704
21:00+12w61195100 1.4 1000549
19 may, wed
wed1900:00+10wnw81497100 14.0 999745
03:00+9wnw91597100 28.3 999696
06:00+9wnw101695100 15.5 1001944
09:00+9wnw61197100 20.9 1004763
12:00+9wnw71396100 8.1 1006814
15:00+10wnw71393100 10.7 1008746
18:00+12wnw81285100 1.2 10091095
21:00+9wnw61284100 1.4 1011441
20 may, thu
thu2000:00+6w5118836 0.0 1013233
03:00+5wsw38930 0.0 1014146
06:00+6wsw49955 0.0 1014168
09:00+11sw58805 0.0 1015495
12:00+14wsw796772 0.7 10141587
15:00+11wsw6118414 1.6 1015879
18:00+12wsw6107881 0.7 10151002
21:00+9sw34875 1.0 101564